AUL148 ULLI-ULAA

Flight info

Callsign AUL148
Flight time 1h 16m
Altitude 35000
Route RELNI T693 DISUP T821 MAKOG
Aircraft B738/M-VGDW/C

Departure

Time 2026-04-25 09:06
Airport Pulkovo Airport (ULLI)

Arrival

Time 2026-04-25 10:22
Airport Talagi Airport (ULAA)
Time Latitude Longitude Altitude Speed Heading
2026-04-25 08:48 59.79785 30.26689 80 ft 0 kts 95°
2026-04-25 08:57 59.79786 30.26642 85 ft 4 kts 88°
2026-04-25 08:57 59.79784 30.26589 82 ft 4 kts 86°
2026-04-25 08:57 59.79784 30.26551 82 ft 0 kts 95°
2026-04-25 08:59 59.79784 30.26541 82 ft 4 kts 95°
2026-04-25 09:00 59.79788 30.26514 85 ft 2 kts 168°
2026-04-25 09:00 59.79799 30.26516 83 ft 2 kts 195°
2026-04-25 09:00 59.79810 30.26522 84 ft 2 kts 196°
2026-04-25 09:00 59.79817 30.26526 86 ft 0 kts 196°
2026-04-25 09:01 59.79812 30.26523 84 ft 2 kts 196°
2026-04-25 09:02 59.79791 30.26511 84 ft 4 kts 194°
2026-04-25 09:02 59.79753 30.26495 80 ft 7 kts 192°
2026-04-25 09:02 59.79701 30.26471 81 ft 9 kts 193°
2026-04-25 09:02 59.79640 30.26437 82 ft 10 kts 198°
2026-04-25 09:03 59.79574 30.26394 80 ft 10 kts 198°
2026-04-25 09:03 59.79533 30.26368 81 ft 6 kts 197°
2026-04-25 09:03 59.79494 30.26382 82 ft 6 kts 135°
2026-04-25 09:03 59.79458 30.26427 83 ft 6 kts 186°
2026-04-25 09:04 59.79417 30.26403 83 ft 6 kts 196°
2026-04-25 09:04 59.79377 30.26380 81 ft 6 kts 196°
2026-04-25 09:04 59.79338 30.26354 85 ft 6 kts 208°
2026-04-25 09:04 59.79330 30.26273 81 ft 7 kts 282°
2026-04-25 09:05 59.79331 30.26261 81 ft 0 kts 283°
2026-04-25 09:05 59.79348 30.26122 81 ft 35 kts 283°
2026-04-25 09:05 59.79493 30.25133 82 ft 112 kts 286°
2026-04-25 09:05 59.79776 30.23220 157 ft 168 kts 285°
2026-04-25 09:06 59.80110 30.21020 1131 ft 162 kts 281°
2026-04-25 09:06 59.80437 30.18963 2282 ft 151 kts 280°
2026-04-25 09:06 59.80753 30.17031 3067 ft 149 kts 279°
2026-04-25 09:06 59.81045 30.14953 3584 ft 160 kts 279°
2026-04-25 09:07 59.81356 30.12755 4182 ft 169 kts 280°
2026-04-25 09:07 59.81684 30.10471 4839 ft 174 kts 280°
2026-04-25 09:07 59.82030 30.08075 5288 ft 190 kts 281°
2026-04-25 09:07 59.82401 30.05513 5703 ft 198 kts 281°
2026-04-25 09:08 59.82791 30.02835 6152 ft 207 kts 282°
2026-04-25 09:08 59.83379 30.00144 6562 ft 222 kts 304°
2026-04-25 09:08 59.84690 29.98381 7174 ft 239 kts 339°
2026-04-25 09:08 59.86367 29.98415 7926 ft 249 kts
2026-04-25 09:09 59.88063 29.99427 8461 ft 264 kts 13°
2026-04-25 09:09 59.89243 30.00189 8763 ft 273 kts 12°
2026-04-25 09:09 59.91646 30.02058 9618 ft 287 kts 30°
2026-04-25 09:09 59.93015 30.05004 10282 ft 297 kts 60°
2026-04-25 09:10 59.93577 30.09056 10619 ft 317 kts 90°
2026-04-25 09:10 59.93150 30.13417 10862 ft 334 kts 111°
2026-04-25 09:10 59.92353 30.17852 11369 ft 345 kts 112°
2026-04-25 09:10 59.91397 30.22263 12041 ft 349 kts 118°
2026-04-25 09:11 59.89283 30.31085 13453 ft 359 kts 116°
2026-04-25 09:11 59.88648 30.35931 14074 ft 366 kts 96°
2026-04-25 09:11 59.88471 30.41003 14804 ft 369 kts 92°
2026-04-25 09:12 59.88368 30.46138 15499 ft 374 kts 92°
2026-04-25 09:12 59.88296 30.49585 16001 ft 377 kts 92°
2026-04-25 09:12 59.88165 30.54833 16730 ft 382 kts 93°
2026-04-25 09:12 59.88008 30.60151 17469 ft 386 kts 93°
2026-04-25 09:13 59.87881 30.65525 18084 ft 391 kts 87°
2026-04-25 09:13 59.88460 30.70775 18616 ft 390 kts 60°
2026-04-25 09:13 59.89851 30.75363 19275 ft 387 kts 52°
2026-04-25 09:13 59.91369 30.79842 19889 ft 392 kts 51°
2026-04-25 09:14 59.92911 30.84350 20469 ft 397 kts 51°
2026-04-25 09:14 59.94466 30.88942 21087 ft 400 kts 51°
2026-04-25 09:14 59.96025 30.93581 21684 ft 405 kts 52°
2026-04-25 09:14 59.97591 30.98280 22253 ft 409 kts 52°
2026-04-25 09:15 59.99167 31.03045 22805 ft 413 kts 52°
2026-04-25 09:15 60.00751 31.07855 23293 ft 417 kts 52°
2026-04-25 09:15 60.02362 31.12762 23513 ft 428 kts 52°
2026-04-25 09:15 60.04014 31.17806 23729 ft 437 kts 52°
2026-04-25 09:16 60.05665 31.22865 24134 ft 441 kts 52°
2026-04-25 09:16 60.07341 31.28015 24607 ft 443 kts 53°
2026-04-25 09:16 60.09026 31.33200 25052 ft 446 kts 53°
2026-04-25 09:16 60.10725 31.38428 25456 ft 449 kts 53°
2026-04-25 09:17 60.14249 31.48855 26244 ft 450 kts 43°
2026-04-25 09:17 60.16653 31.52667 26706 ft 434 kts 21°
2026-04-25 09:17 60.19375 31.55113 27318 ft 426 kts 15°
2026-04-25 09:18 60.22114 31.57371 27899 ft 424 kts 15°
2026-04-25 09:18 60.24841 31.59615 28398 ft 424 kts 15°
2026-04-25 09:18 60.27575 31.61892 28902 ft 425 kts 15°
2026-04-25 09:18 60.30299 31.64194 29453 ft 423 kts 16°
2026-04-25 09:19 60.33012 31.66513 29899 ft 423 kts 16°
2026-04-25 09:19 60.35717 31.68842 30293 ft 423 kts 17°
2026-04-25 09:19 60.38422 31.71182 30707 ft 422 kts 17°
2026-04-25 09:19 60.41116 31.73519 31119 ft 421 kts 17°
2026-04-25 09:20 60.43805 31.75857 31510 ft 421 kts 17°
2026-04-25 09:20 60.46500 31.78203 31889 ft 420 kts 17°
2026-04-25 09:20 60.49184 31.80544 32294 ft 419 kts 18°
2026-04-25 09:20 60.51865 31.82885 32651 ft 419 kts 18°
2026-04-25 09:21 60.54543 31.85228 32993 ft 419 kts 18°
2026-04-25 09:21 60.57223 31.87578 33363 ft 419 kts 18°
2026-04-25 09:21 60.59899 31.89928 33677 ft 419 kts 19°
2026-04-25 09:21 60.62574 31.92280 33938 ft 419 kts 19°
2026-04-25 09:22 60.65255 31.94642 34194 ft 419 kts 19°
2026-04-25 09:22 60.67933 31.97005 34435 ft 420 kts 19°
2026-04-25 09:22 60.70662 31.98920 34453 ft 421 kts
2026-04-25 09:22 60.73589 31.99886 34505 ft 420 kts 358°
2026-04-25 09:23 60.76516 32.00122 34524 ft 424 kts 357°
2026-04-25 09:23 60.82449 32.00441 34530 ft 435 kts 358°
2026-04-25 09:24 60.88571 32.00886 34524 ft 446 kts 358°
2026-04-25 09:24 60.94826 32.01810 34495 ft 461 kts
2026-04-25 09:24 60.97868 32.04128 34523 ft 472 kts 25°
2026-04-25 09:25 61.00576 32.08038 34505 ft 480 kts 40°
2026-04-25 09:25 61.05297 32.17808 34513 ft 480 kts 42°
2026-04-25 09:26 61.10033 32.27558 34511 ft 480 kts 41°
2026-04-25 09:26 61.14804 32.37208 34509 ft 479 kts 41°
2026-04-25 09:27 61.19574 32.46881 34514 ft 480 kts 41°
2026-04-25 09:27 61.24305 32.56533 34515 ft 480 kts 41°
2026-04-25 09:28 61.29081 32.66249 34504 ft 479 kts 41°
2026-04-25 09:28 61.33909 32.75818 34515 ft 479 kts 40°
2026-04-25 09:29 61.38738 32.85400 34512 ft 480 kts 40°
2026-04-25 09:29 61.43548 32.95033 34499 ft 478 kts 41°
2026-04-25 09:30 61.48265 33.04868 34495 ft 481 kts 48°
2026-04-25 09:30 61.52388 33.15919 34500 ft 482 kts 50°
2026-04-25 09:31 61.56435 33.26988 34500 ft 481 kts 50°
2026-04-25 09:31 61.60520 33.38096 34499 ft 481 kts 50°
2026-04-25 09:32 61.64606 33.49218 34507 ft 481 kts 50°
2026-04-25 09:32 61.68685 33.60375 34500 ft 480 kts 50°
2026-04-25 09:33 61.72755 33.71566 34506 ft 480 kts 50°
2026-04-25 09:33 61.76807 33.82765 34504 ft 480 kts 50°
2026-04-25 09:34 61.80850 33.93994 34493 ft 480 kts 50°
2026-04-25 09:34 61.84886 34.05248 34503 ft 480 kts 50°
2026-04-25 09:35 61.89028 34.16319 34488 ft 477 kts 42°
2026-04-25 09:35 61.94043 34.25452 34499 ft 475 kts 36°
2026-04-25 09:36 61.99096 34.34343 34498 ft 474 kts 36°
2026-04-25 09:36 62.04164 34.43361 34500 ft 475 kts 37°
2026-04-25 09:37 62.09219 34.52448 34500 ft 475 kts 37°
2026-04-25 09:37 62.14262 34.61570 34510 ft 475 kts 37°
2026-04-25 09:38 62.19308 34.70736 34505 ft 475 kts 37°
2026-04-25 09:38 62.24352 34.79938 34507 ft 476 kts 37°
2026-04-25 09:39 62.29353 34.89104 34504 ft 476 kts 37°
2026-04-25 09:39 62.34383 34.98363 34503 ft 476 kts 37°
2026-04-25 09:40 62.41930 35.12358 34506 ft 477 kts 38°
2026-04-25 09:40 62.46916 35.21827 34507 ft 478 kts 38°
2026-04-25 09:41 62.51908 35.31346 34508 ft 478 kts 38°
2026-04-25 09:41 62.56896 35.40877 34507 ft 478 kts 38°
2026-04-25 09:42 62.61878 35.50441 34507 ft 478 kts 38°
2026-04-25 09:42 62.66859 35.60051 34508 ft 478 kts 38°
2026-04-25 09:43 62.71799 35.69628 34508 ft 479 kts 38°
2026-04-25 09:43 62.76767 35.79304 34503 ft 479 kts 38°
2026-04-25 09:44 62.81731 35.89018 34508 ft 479 kts 38°
2026-04-25 09:44 62.86692 35.98765 34503 ft 479 kts 39°
2026-04-25 09:45 62.91658 36.08502 34507 ft 479 kts 38°
2026-04-25 09:45 62.96641 36.18242 34500 ft 479 kts 38°
2026-04-25 09:46 63.01618 36.27994 34504 ft 479 kts 38°
2026-04-25 09:46 63.06590 36.37803 34499 ft 480 kts 39°
2026-04-25 09:47 63.11555 36.47654 34498 ft 480 kts 39°
2026-04-25 09:47 63.16518 36.57544 34501 ft 480 kts 39°
2026-04-25 09:48 63.21432 36.67567 34494 ft 482 kts 44°
2026-04-25 09:48 63.25774 36.78944 34498 ft 481 kts 48°
2026-04-25 09:49 63.27854 36.84679 34474 ft 470 kts 48°
2026-04-25 09:49 63.29878 36.90232 34477 ft 455 kts 48°
2026-04-25 09:49 63.31851 36.95594 34496 ft 440 kts 47°
2026-04-25 09:49 63.33767 37.00772 34487 ft 427 kts 47°
2026-04-25 09:50 63.35627 37.05798 34465 ft 415 kts 47°
2026-04-25 09:50 63.37413 37.10627 34479 ft 402 kts 47°
2026-04-25 09:50 63.39159 37.15368 34474 ft 389 kts 47°
2026-04-25 09:50 63.40849 37.19975 34481 ft 381 kts 47°
2026-04-25 09:51 63.44211 37.29164 34515 ft 385 kts 47°
2026-04-25 09:51 63.47627 37.38563 34511 ft 393 kts 47°
2026-04-25 09:52 63.51086 37.48087 34484 ft 393 kts 48°
2026-04-25 09:52 63.54515 37.57568 34496 ft 391 kts 48°
2026-04-25 09:53 63.57940 37.67083 34487 ft 392 kts 48°
2026-04-25 09:53 63.61356 37.76619 34485 ft 391 kts 48°
2026-04-25 09:54 63.64767 37.86181 34491 ft 392 kts 48°
2026-04-25 09:54 63.68172 37.95766 34486 ft 391 kts 49°
2026-04-25 09:55 63.71566 38.05364 34499 ft 392 kts 49°
2026-04-25 09:55 63.74959 38.14997 34490 ft 391 kts 49°
2026-04-25 09:56 63.78342 38.24646 34487 ft 391 kts 49°
2026-04-25 09:56 63.81696 38.34254 34484 ft 392 kts 49°
2026-04-25 09:57 63.85066 38.43947 34489 ft 391 kts 49°
2026-04-25 09:57 63.88424 38.53650 34488 ft 391 kts 49°
2026-04-25 09:58 63.91773 38.63365 34487 ft 390 kts 49°
2026-04-25 09:58 63.95108 38.73085 34483 ft 389 kts 49°
2026-04-25 09:59 63.97877 38.81187 34482 ft 389 kts 50°
2026-04-25 09:59 64.01195 38.90933 34482 ft 389 kts 50°
2026-04-25 10:00 64.04503 39.00678 34485 ft 388 kts 50°
2026-04-25 10:00 64.07761 39.10509 34481 ft 388 kts 52°
2026-04-25 10:01 64.10876 39.20607 34483 ft 388 kts 53°
2026-04-25 10:01 64.13929 39.30803 34467 ft 389 kts 54°
2026-04-25 10:02 64.15438 39.36072 34023 ft 405 kts 54°
2026-04-25 10:02 64.17015 39.41620 33616 ft 425 kts 54°
2026-04-25 10:02 64.18673 39.47439 33047 ft 446 kts 54°
2026-04-25 10:02 64.20376 39.53400 32426 ft 456 kts 54°
2026-04-25 10:03 64.22116 39.59502 31743 ft 457 kts 54°
2026-04-25 10:03 64.23860 39.65636 31068 ft 459 kts 54°
2026-04-25 10:03 64.25591 39.71740 30428 ft 461 kts 54°
2026-04-25 10:03 64.27361 39.77988 29785 ft 462 kts 54°
2026-04-25 10:04 64.29115 39.84200 29081 ft 463 kts 54°
2026-04-25 10:04 64.30860 39.90431 28309 ft 463 kts 56°
2026-04-25 10:04 64.32298 39.97082 27551 ft 466 kts 67°
2026-04-25 10:04 64.33336 40.04153 26835 ft 465 kts 71°
2026-04-25 10:05 64.34235 40.11313 26126 ft 464 kts 72°
2026-04-25 10:05 64.35112 40.18460 25427 ft 462 kts 72°
2026-04-25 10:05 64.36020 40.25568 24745 ft 460 kts 71°
2026-04-25 10:05 64.36951 40.32589 24078 ft 455 kts 71°
2026-04-25 10:06 64.37883 40.39467 23425 ft 443 kts 71°
2026-04-25 10:06 64.38799 40.46159 22723 ft 432 kts 70°
2026-04-25 10:06 64.39696 40.52721 21936 ft 422 kts 71°
2026-04-25 10:06 64.40567 40.59108 21169 ft 412 kts 71°
2026-04-25 10:07 64.41415 40.65364 20558 ft 401 kts 71°
2026-04-25 10:07 64.42235 40.71439 20029 ft 389 kts 71°
2026-04-25 10:07 64.43027 40.77333 19527 ft 378 kts 71°
2026-04-25 10:07 64.43796 40.83081 19028 ft 369 kts 72°
2026-04-25 10:08 64.44543 40.88681 18538 ft 360 kts 72°
2026-04-25 10:08 64.45273 40.94177 18062 ft 353 kts 72°
2026-04-25 10:08 64.45988 40.99553 17562 ft 346 kts 72°
2026-04-25 10:08 64.46687 41.04836 17020 ft 340 kts 72°
2026-04-25 10:09 64.47370 41.10029 16478 ft 334 kts 72°
2026-04-25 10:09 64.48023 41.15161 15945 ft 329 kts 77°
2026-04-25 10:09 64.48088 41.20396 15410 ft 324 kts 102°
2026-04-25 10:09 64.47282 41.25110 14926 ft 316 kts 126°
2026-04-25 10:10 64.45790 41.28709 14428 ft 307 kts 148°
2026-04-25 10:10 64.43892 41.30731 13943 ft 297 kts 170°
2026-04-25 10:10 64.41867 41.31052 13471 ft 289 kts 190°
2026-04-25 10:10 64.39973 41.29765 12946 ft 281 kts 210°
2026-04-25 10:11 64.38399 41.27194 12413 ft 275 kts 225°
2026-04-25 10:11 64.37225 41.23778 11886 ft 270 kts 243°
2026-04-25 10:11 64.36530 41.19782 11362 ft 267 kts 253°
2026-04-25 10:11 64.35988 41.15687 10859 ft 266 kts 254°
2026-04-25 10:12 64.35463 41.11609 10357 ft 264 kts 254°
2026-04-25 10:12 64.34930 41.07552 9862 ft 263 kts 253°
2026-04-25 10:12 64.33950 40.99468 8838 ft 261 kts 266°
2026-04-25 10:13 64.34155 40.95344 8315 ft 260 kts 286°
2026-04-25 10:13 64.34911 40.91558 7797 ft 261 kts 301°
2026-04-25 10:13 64.36074 40.88345 7298 ft 262 kts 315°
2026-04-25 10:13 64.37592 40.86014 6774 ft 265 kts 333°
2026-04-25 10:14 64.39376 40.84933 6275 ft 268 kts 353°
2026-04-25 10:14 64.41232 40.85352 5785 ft 270 kts 14°
2026-04-25 10:14 64.42923 40.87251 5277 ft 272 kts 34°
2026-04-25 10:14 64.44308 40.90227 4772 ft 273 kts 50°
2026-04-25 10:15 64.45225 40.94071 4261 ft 274 kts 69°
2026-04-25 10:15 64.45829 40.98241 3753 ft 273 kts 72°
2026-04-25 10:15 64.46370 41.02392 3508 ft 263 kts 72°
2026-04-25 10:15 64.46881 41.06326 3440 ft 246 kts 72°
2026-04-25 10:16 64.47363 41.10005 3422 ft 231 kts 72°
2026-04-25 10:16 64.47825 41.13513 3427 ft 225 kts 72°
2026-04-25 10:16 64.48444 41.16797 3417 ft 221 kts 50°
2026-04-25 10:16 64.49664 41.18712 3399 ft 209 kts
2026-04-25 10:17 64.51031 41.18297 3175 ft 198 kts 325°
2026-04-25 10:17 64.51937 41.16071 2847 ft 191 kts 303°
2026-04-25 10:17 64.52861 41.13860 2457 ft 192 kts 321°
2026-04-25 10:17 64.53962 41.12121 2111 ft 191 kts 322°
2026-04-25 10:18 64.55036 41.10397 1928 ft 183 kts 321°
2026-04-25 10:18 64.56039 41.08731 1868 ft 173 kts 320°
2026-04-25 10:18 64.57010 41.07083 1814 ft 173 kts 320°
2026-04-25 10:18 64.57973 41.05424 1792 ft 170 kts 316°
2026-04-25 10:19 64.58531 41.03167 1799 ft 158 kts 277°
2026-04-25 10:19 64.58634 41.00677 1798 ft 154 kts 276°
2026-04-25 10:19 64.58733 40.98232 1792 ft 149 kts 276°
2026-04-25 10:19 64.58839 40.95880 1798 ft 145 kts 276°
2026-04-25 10:20 64.58949 40.93579 1801 ft 141 kts 276°
2026-04-25 10:20 64.59065 40.91333 1662 ft 143 kts 277°
2026-04-25 10:20 64.59191 40.89002 1432 ft 145 kts 277°
2026-04-25 10:20 64.59304 40.86687 1216 ft 142 kts 276°
2026-04-25 10:21 64.59411 40.84431 970 ft 136 kts 276°
2026-04-25 10:21 64.59515 40.82256 792 ft 137 kts 276°
2026-04-25 10:21 64.59623 40.79992 596 ft 144 kts 276°
2026-04-25 10:21 64.59735 40.77660 399 ft 145 kts 276°
2026-04-25 10:22 64.59848 40.75340 176 ft 144 kts 277°
2026-04-25 10:22 64.59955 40.73064 39 ft 134 kts 277°
2026-04-25 10:22 64.60045 40.71304 37 ft 69 kts 276°
2026-04-25 10:22 64.60074 40.70683 36 ft 33 kts 276°
2026-04-25 10:23 64.60090 40.70346 35 ft 1 kts 277°
2026-04-25 10:23 64.60092 40.70322 35 ft 3 kts 277°
2026-04-25 10:23 64.60094 40.70259 35 ft 5 kts 266°
2026-04-25 10:23 64.60068 40.70212 35 ft 6 kts 186°
2026-04-25 10:24 64.60029 40.70205 38 ft 6 kts 185°
2026-04-25 10:24 64.59990 40.70197 39 ft 6 kts 185°
2026-04-25 10:24 64.59953 40.70190 39 ft 5 kts 185°